Temperature
28 28 28 28 28 27 27 27 27 27 27 27 26 25 23 23 23 23 23 22 22 22 21 20 20 20 20 20 19 19 19 19 19 19 19 19 19 19 18 18 18 18 17 17
27 28 28 27 28 27 27 27 27 27 27 25 23 22 22 22 22 22 22 22 21 21 20 20 19 19 19 19 19 19 19 19 19 19 19 19 18 18 18 18 18 17 17 17
27 27 27 26 27 27 27 27 27 27 26 24 23 21 20 20 21 20 20 20 20 19 19 19 19 19 18 18 18 18 18 18 17 17 17 18 18 17 18 18 18 18 17 17
26 26 24 27 27 27 27 27 26 25 24 23 21 18 18 18 18 18 18 18 18 18 18 18 18 18 18 18 17 17 17 17 16 16 16 17 17 17 17 17 17 17 17 17
26 25 26 26 26 26 26 26 25 24 23 21 19 19 18 16 16 16 16 16 16 16 16 17 17 17 17 17 16 16 16 16 16 16 16 16 16 16 16 16 16 16 16 16
25 24 24 26 25 24 25 25 24 23 22 21 21 22 19 16 15 15 14 15 15 15 15 15 15 15 16 16 16 16 15 15 15 15 15 15 15 15 15 15 15 15 14 14
24 24 25 25 24 24 24 24 23 22 22 21 22 20 16 15 14 14 14 14 15 15 15 14 15 15 15 15 15 14 14 14 14 14 14 14 14 14 14 14 13 13 13 13
24 24 24 24 24 24 23 21 21 21 21 20 18 16 15 14 14 13 13 13 14 14 14 13 13 14 14 13 13 13 13 13 12 12 12 12 12 12 12 12 12 12 12 12
25 24 22 22 23 21 20 21 20 20 19 18 16 15 15 14 14 13 13 13 13 13 13 13 12 12 12 12 11 11 11 11 11 11 11 11 11 11 11 11 11 11 11 11
23 24 22 21 20 20 19 20 19 19 18 17 16 15 14 14 13 13 13 13 13 12 12 12 11 11 11 11 11 10 10 10 10 10 10 10 10 10 10 10 10 10 10 10
23 23 22 20 19 19 18 18 18 17 17 16 15 15 14 13 13 13 12 12 12 12 11 11 11 10 10 10 10 10 10 10 10 10 10 9 9 9 9 9 9 8 8 8
22 20 21 19 18 18 17 17 17 16 16 15 15 14 14 13 13 12 12 12 12 11 11 11 10 10 10 9 9 9 10 10 10 10 10 9 9 9 9 8 8 8 8 7
18 17 17 17 17 17 16 16 15 15 15 14 14 14 13 13 12 12 12 11 11 11 11 10 10 10 9 9 9 9 9 9 9 9 9 9 9 9 9 9 8 8 7 7
15 16 16 16 16 15 15 15 14 14 13 13 13 13 12 12 12 12 11 11 11 11 10 10 10 10 9 9 9 8 8 9 8 9 9 9 8 8 8 8 8 8 7 6
15 15 15 14 14 14 14 14 13 13 12 12 12 12 12 12 11 11 11 11 10 10 10 10 10 9 9 9 8 8 8 8 8 8 8 8 8 8 7 7 7 6 6 6
14 14 14 14 14 13 13 13 13 12 12 12 12 11 11 11 11 11 11 10 10 10 10 9 9 9 9 8 8 8 8 8 7 7 7 7 7 7 6 6 6 5 5 5
14 14 14 13 13 13 13 12 12 12 11 11 11 11 11 11 11 10 10 10 10 9 9 9 9 8 8 8 7 8 8 7 7 7 7 6 6 5 5 5 4 4 4 3
13 13 13 13 12 12 12 12 11 11 11 11 11 10 10 10 10 10 10 10 10 9 9 8 8 8 7 7 7 6 6 6 6 6 5 5 4 4 4 3 3 3 3 2
12 12 12 12 12 12 12 11 11 11 11 11 10 10 10 10 10 10 10 9 9 9 8 8 8 7 7 6 6 5 5 5 5 4 4 3 3 3 2 2 2 1 1 1
11 11 11 11 11 11 11 11 11 11 11 10 10 10 10 10 10 10 9 9 9 8 8 7 7 6 5 5 5 5 4 4 3 3 2 2 2 1 1 1 1 1 1 1
11 11 11 11 11 11 11 11 11 11 10 10 10 10 10 10 9 9 9 9 8 7 7 6 6 5 5 4 4 4 3 2 2 1 1 1 1 1 0 0 0 0 0 0
11 11 11 11 11 11 10 10 10 10 10 10 10 9 9 9 9 8 8 8 7 7 6 5 5 4 4 3 3 3 2 1 1 1 0 0 0 -0 -0 -0 -0 -0 -0 -0
10 10 10 10 10 10 10 10 10 10 9 9 9 9 9 8 8 8 7 6 6 6 5 4 4 3 3 2 2 1 1 0 0 -0 -0 -0 -0 -1 -1 -1 -1 -1 -1 -1
9 9 9 9 10 10 10 9 9 9 9 8 8 8 8 8 7 7 6 6 5 4 4 3 3 2 2 1 1 1 0 -0 -0 -0 -1 -1 -1 -1 -1 -1 -1 -1 -1 -1
9 9 9 9 9 9 9 9 9 8 8 8 8 7 7 6 6 5 5 4 4 3 2 2 2 1 1 1 0 -0 -0 -1 -1 -1 -1 -1 -1 -1 -1 -1 -1 -1 -1 -1
8 9 8 8 8 8 8 8 8 8 7 7 7 6 6 5 5 4 4 3 3 2 2 1 1 1 0 0 -0 -1 -1 -1 -1 -1 -1 -1 -1 -1 -1 -1 -1 -1 -1 -1
8 8 8 8 8 7 7 7 7 7 6 6 6 5 5 4 4 3 3 2 2 2 1 1 1 0 0 -0 -0 -1 -1 -1 -1 -1 -1 -1 -1 -1 -1 -1 -1 -1 -1 -1
Wind_Speed
10 5 6 8 8 9 11 11 11 10 9 4 3 2 2 1 3 6 8 10 11 12 11 11 11 11 12 12 11 11 12 12 12 11 11 11 11 11 11 12 13 13 13 13
10 8 8 10 10 11 11 11 11 11 8 4 4 3 3 3 2 4 5 7 8 8 8 8 8 8 8 9 9 9 10 10 9 9 9 10 10 10 11 11 12 12 13 14
11 7 8 12 11 11 10 10 10 10 2 4 4 5 5 5 5 5 6 6 6 5 5 4 4 4 5 4 4 5 5 5 5 6 7 7 8 9 10 10 11 12 13 14
9 7 12 5 2 4 8 8 5 3 2 5 8 9 8 7 7 8 8 9 8 8 8 8 7 7 7 7 6 5 4 2 1 1 2 3 4 5 7 8 9 10 12 13
9 11 12 5 2 3 6 6 3 4 6 10 12 11 10 9 10 10 11 11 11 11 12 11 11 10 11 10 9 8 7 6 4 2 1 1 2 3 4 5 7 8 9 11
8 10 10 2 4 1 4 6 4 6 9 11 11 6 7 9 11 12 12 12 13 14 14 14 12 11 12 12 11 10 9 8 6 5 4 4 3 3 3 4 6 7 8 9
10 10 6 4 5 4 5 1 5 7 9 9 6 6 13 12 12 12 13 13 14 14 14 13 12 12 13 13 12 10 9 9 8 7 6 5 5 4 4 4 5 6 7 8
7 8 3 6 4 2 3 4 4 7 8 9 14 17 15 14 13 12 12 13 13 13 13 12 11 12 13 12 10 8 8 8 8 7 6 6 5 5 5 5 5 6 6 7
3 1 5 3 1 3 2 3 5 8 10 15 17 17 16 14 12 12 11 11 11 12 11 10 10 10 11 9 7 7 7 7 6 6 6 6 6 6 5 5 6 7 8 8
3 1 2 1 1 1 2 4 7 10 13 16 16 16 15 13 12 11 10 10 9 9 9 9 8 8 8 7 6 5 5 5 4 4 5 6 6 6 7 7 8 8 9 10
4 1 1 3 2 2 5 8 10 13 14 15 16 15 14 12 11 10 9 8 8 7 7 7 6 6 5 5 4 4 4 4 5 5 5 6 6 6 6 6 6 8 10 11
3 4 3 3 3 5 8 10 13 15 15 15 14 14 13 11 10 9 8 7 6 5 5 5 4 4 3 3 4 4 5 5 6 6 6 7 8 8 4 7 6 10 11 11
3 3 4 5 6 8 10 12 14 15 15 15 13 12 11 10 9 7 6 5 4 4 3 3 2 2 3 3 4 5 6 7 7 8 8 9 9 10 11 9 8 12 12 12
3 4 6 8 10 11 14 15 16 15 14 14 12 11 10 8 7 6 4 4 3 2 2 2 2 3 4 4 4 5 7 6 7 8 9 10 10 11 11 12 13 11 8 6
5 6 10 13 14 15 15 16 16 15 13 12 10 9 7 5 4 3 2 1 1 0 1 2 3 4 4 5 5 7 8 8 8 10 10 10 10 11 11 13 12 12 12 12
11 14 15 16 16 16 15 15 15 13 11 9 7 5 4 3 2 1 0 0 2 2 3 3 3 4 5 5 7 7 7 3 6 10 11 11 10 11 11 11 12 12 12 12
13 15 15 15 15 15 14 13 12 10 9 7 5 3 1 1 0 1 1 2 2 3 3 3 4 4 5 6 7 8 9 7 6 9 10 10 10 11 11 11 11 12 12 11
12 13 13 13 13 13 11 10 9 7 5 3 2 1 1 1 2 2 3 3 3 2 2 3 4 4 4 6 7 8 8 9 9 9 9 9 10 11 11 11 12 13 12 12
13 13 13 11 10 9 8 6 5 4 2 1 2 2 3 3 3 3 3 3 4 3 3 3 2 3 4 6 8 6 8 9 9 9 9 9 10 10 10 11 11 12 12 12
12 11 11 9 8 7 5 4 2 1 0 1 2 2 3 3 3 3 3 3 3 4 4 3 3 4 5 6 8 7 8 9 9 9 9 9 10 10 10 11 12 12 12 12
9 8 7 6 4 3 3 2 1 1 2 2 3 3 3 3 3 3 3 2 4 4 3 1 3 5 6 6 7 7 7 8 8 8 8 9 9 10 10 11 11 11 12 12
6 6 5 4 4 3 3 2 2 3 3 3 3 3 3 3 2 1 2 3 3 3 2 3 5 7 8 8 6 7 7 8 8 8 8 9 9 10 10 11 11 11 11 11
4 4 4 5 5 4 3 3 3 3 3 3 3 3 3 4 4 3 2 4 4 3 4 6 7 6 10 6 6 7 7 8 8 8 8 9 9 10 10 11 11 11 11 11
3 4 4 5 5 4 4 4 4 3 3 3 2 2 3 2 2 3 5 7 6 4 6 7 5 6 8 5 6 7 7 8 8 8 8 9 9 9 10 10 10 11 11 13
4 4 4 5 5 5 4 4 4 3 3 2 2 3 3 3 3 3 5 6 5 3 5 5 1 5 5 7 7 7 7 7 8 8 8 9 9 9 9 10 10 11 11 11
4 4 4 4 5 5 5 5 4 3 3 2 2 2 3 3 4 4 4 6 6 4 4 4 4 3 6 6 7 7 7 7 8 8 9 9 10 10 10 11 13 11 11 11
4 4 4 4 4 4 5 4 4 3 3 2 1 2 3 3 3 4 5 4 4 4 4 4 5 5 6 6 6 7 7 7 8 8 9 9 9 10 11 12 11 11 11 12
Wind_Direction
255 254 244 246 237 226 239 264 279 288 288 318 35 18 10 279 198 189 187 191 196 198 198 202 206 210 214 218 216 215 214 216 219 219 218 218 216 215 214 215 219 221 225 228
237 234 241 250 249 244 247 258 267 276 283 62 72 67 58 62 122 152 162 172 180 186 190 193 200 206 210 214 214 210 216 221 219 217 214 216 218 218 219 221 226 226 228 232
243 229 244 250 249 248 250 252 263 275 312 103 98 76 62 64 85 98 107 115 127 137 143 148 156 165 168 177 185 190 201 212 215 219 219 221 224 224 226 228 229 231 234 236
247 231 249 270 43 274 266 263 261 262 133 124 115 99 76 66 79 87 88 89 87 91 92 92 99 109 110 112 114 116 116 116 136 221 233 235 236 240 243 244 243 243 244 244
244 245 251 229 195 238 254 261 230 199 154 140 137 122 85 73 78 82 84 84 81 79 81 79 81 87 92 89 85 83 78 69 59 52 37 328 291 285 275 268 262 260 258 257
237 256 261 254 112 168 255 245 166 172 166 163 174 173 112 97 92 87 84 84 85 83 80 77 75 81 85 82 77 69 66 64 59 55 52 41 22 349 321 293 280 278 275 273
238 248 255 97 126 188 245 37 130 167 172 177 173 105 120 114 101 94 90 88 87 84 79 75 75 76 75 72 67 61 59 59 53 47 48 44 31 14 346 320 310 301 297 291
236 246 238 117 163 233 38 85 146 159 158 139 119 118 122 118 112 106 100 93 89 85 80 75 74 75 74 67 64 62 60 56 49 36 26 31 24 10 354 335 315 305 303 301
239 34 78 125 95 72 86 131 148 149 141 137 134 132 129 124 120 113 106 98 92 91 87 80 73 73 75 70 61 58 56 51 43 35 27 17 4 357 345 339 328 326 322 317
258 153 93 112 155 163 163 150 147 143 142 141 137 135 132 129 126 120 112 106 104 100 96 88 81 76 73 67 58 50 41 31 22 12 4 8 344 344 342 339 337 333 325 319
257 287 132 89 72 149 146 142 138 136 137 138 136 136 134 132 129 125 120 115 111 106 102 96 86 75 65 55 40 28 16 359 348 347 352 333 331 329 323 327 335 316 318 317
319 24 348 42 71 134 140 139 138 135 132 131 132 132 131 127 124 123 120 119 114 106 96 88 80 72 54 31 12 351 344 342 336 334 337 326 323 318 270 264 245 239 249 273
332 12 55 92 103 121 126 127 128 127 127 125 123 123 122 121 121 121 120 117 112 103 89 70 48 32 21 4 348 339 331 330 327 327 325 320 318 316 315 300 250 240 241 244
86 112 105 104 107 111 114 116 114 112 111 113 114 115 116 118 121 126 123 115 105 93 62 34 12 8 360 345 330 322 316 320 311 315 316 314 313 313 311 312 313 312 294 261
75 94 111 111 109 109 111 112 110 107 105 105 108 110 113 117 122 122 118 112 103 48 19 1 355 358 349 332 323 318 316 321 327 319 311 310 311 310 310 311 310 311 313 311
100 106 110 111 109 108 108 107 104 103 101 99 95 90 94 108 124 127 119 305 304 334 347 340 341 345 340 329 320 310 306 310 308 311 310 314 316 314 312 312 311 312 312 316
113 114 113 112 110 107 105 102 101 99 96 91 86 80 65 39 322 299 306 313 313 316 322 330 338 341 336 332 322 318 319 319 305 305 319 322 320 317 316 315 316 316 315 326
101 104 107 110 110 107 104 104 106 109 112 123 151 185 223 255 292 309 308 309 300 301 351 4 2 343 343 347 335 326 323 323 325 327 326 328 326 319 320 321 320 318 318 320
96 99 100 100 102 103 103 105 110 113 123 164 222 248 266 277 289 298 303 306 309 320 20 28 353 326 355 5 339 321 328 329 330 332 330 332 323 327 329 327 324 322 320 320
90 90 88 86 85 89 91 89 85 86 32 263 272 289 300 310 308 303 306 315 8 21 27 14 350 4 2 7 338 335 340 338 339 339 339 337 335 333 332 329 326 325 324 323
92 89 83 74 63 60 56 41 9 328 317 301 297 303 309 312 310 309 305 329 65 44 31 41 13 15 6 348 316 344 354 353 348 346 342 339 335 333 331 329 327 326 325 323
77 72 63 45 24 13 11 353 338 328 326 325 320 318 312 309 316 348 30 27 60 29 2 33 39 30 354 326 354 6 4 358 351 346 342 339 335 333 332 331 329 328 326 325
53 35 18 7 357 346 339 335 336 338 341 338 335 335 334 343 340 333 13 53 59 43 42 53 44 9 325 341 14 8 6 2 355 350 347 344 341 337 336 334 333 331 330 330
13 358 351 346 338 330 331 335 336 337 332 324 343 357 334 332 21 42 66 87 70 61 72 73 36 340 315 11 16 13 13 8 1 356 353 349 345 343 341 339 337 336 335 335
349 342 342 334 323 327 328 314 307 312 315 340 9 26 17 31 45 62 79 96 99 92 92 100 111 316 1 29 24 19 18 15 3 354 355 352 349 346 345 343 342 339 339 339
331 323 334 325 325 321 320 322 323 331 338 349 10 32 51 64 79 92 101 105 103 90 71 61 44 18 34 34 31 22 17 13 6 2 360 355 354 353 351 350 347 347 345 344
296 297 294 302 315 327 326 324 324 329 338 356 30 44 58 70 85 96 98 96 91 77 65 52 42 37 36 34 32 27 23 18 12 7 3 1 359 356 354 353 352 351 350 350
Height
1472 1470 1473 1475 1477 1479 1483 1481 1484 1479 1477 1476 1482 1486 1489 1490 1491 1492 1494 1496 1499 1501 1504 1507 1510 1513 1516 1518 1521 1523 1525 1526 1528 1530 1531 1533 1534 1536 1537 1538 1539 1540 1541 1541
1475 1472 1473 1476 1474 1475 1477 1477 1477 1477 1477 1480 1487 1489 1490 1491 1491 1491 1493 1495 1497 1500 1502 1505 1507 1509 1512 1514 1517 1518 1520 1522 1524 1525 1527 1528 1529 1531 1532 1533 1534 1535 1536 1536
1476 1471 1476 1480 1471 1471 1472 1471 1474 1476 1477 1483 1487 1491 1492 1493 1492 1493 1493 1495 1497 1499 1501 1502 1504 1506 1508 1510 1513 1514 1516 1518 1520 1521 1522 1523 1525 1526 1527 1528 1529 1529 1530 1530
1474 1480 1492 1471 1467 1468 1470 1470 1472 1476 1481 1485 1490 1495 1496 1496 1496 1496 1496 1496 1498 1499 1500 1501 1503 1505 1506 1508 1510 1512 1513 1514 1516 1517 1518 1519 1520 1520 1521 1522 1522 1523 1523 1523
1474 1479 1476 1468 1469 1470 1472 1472 1473 1477 1482 1487 1491 1493 1497 1499 1499 1499 1499 1498 1499 1500 1501 1502 1503 1505 1505 1507 1508 1510 1511 1512 1513 1514 1514 1515 1515 1515 1516 1516 1516 1516 1516 1515
1476 1482 1483 1469 1468 1472 1474 1474 1474 1478 1482 1485 1488 1487 1498 1502 1501 1502 1501 1500 1501 1501 1502 1503 1505 1506 1506 1507 1508 1509 1510 1511 1511 1511 1511 1511 1511 1511 1511 1510 1510 1509 1509 1508
1474 1477 1468 1467 1471 1473 1479 1477 1477 1479 1482 1484 1486 1489 1499 1502 1503 1504 1504 1503 1503 1504 1505 1506 1507 1508 1508 1507 1508 1509 1510 1510 1511 1510 1510 1509 1507 1507 1506 1506 1505 1504 1503 1502
1472 1477 1474 1470 1471 1472 1475 1478 1478 1480 1483 1486 1490 1495 1499 1503 1505 1506 1507 1507 1506 1506 1507 1508 1509 1510 1509 1509 1510 1510 1510 1510 1509 1509 1508 1507 1505 1504 1503 1502 1501 1500 1498 1497
1465 1469 1471 1472 1473 1476 1477 1479 1480 1482 1485 1488 1492 1496 1501 1504 1506 1508 1509 1509 1509 1510 1510 1511 1511 1511 1511 1511 1511 1510 1510 1509 1509 1508 1507 1505 1504 1502 1501 1500 1499 1498 1496 1494
1467 1466 1471 1474 1475 1477 1478 1479 1481 1484 1487 1490 1493 1498 1501 1504 1507 1509 1510 1511 1512 1513 1513 1512 1512 1512 1512 1511 1511 1511 1510 1509 1508 1507 1506 1504 1502 1502 1500 1498 1496 1495 1492 1490
1467 1469 1471 1474 1476 1477 1479 1480 1482 1485 1488 1492 1495 1499 1503 1506 1508 1510 1512 1513 1514 1515 1514 1514 1513 1513 1513 1512 1511 1511 1510 1509 1508 1507 1505 1502 1501 1499 1497 1495 1493 1490 1488 1485
1469 1474 1474 1476 1477 1478 1480 1482 1484 1487 1491 1494 1498 1502 1505 1508 1510 1512 1513 1514 1515 1515 1515 1515 1514 1514 1513 1512 1511 1510 1509 1508 1507 1505 1503 1501 1499 1496 1493 1491 1488 1484 1481 1479
1477 1477 1477 1478 1479 1480 1482 1485 1488 1490 1493 1497 1501 1504 1507 1509 1512 1513 1514 1515 1516 1516 1515 1515 1514 1513 1513 1511 1510 1509 1507 1506 1504 1502 1500 1498 1495 1493 1490 1487 1483 1480 1476 1472
1478 1479 1480 1481 1482 1484 1486 1489 1492 1495 1498 1501 1504 1506 1509 1511 1513 1514 1515 1515 1515 1515 1515 1514 1513 1513 1511 1510 1509 1507 1506 1504 1502 1500 1497 1495 1492 1489 1485 1482 1479 1475 1472 1468
1480 1480 1482 1484 1486 1488 1491 1493 1496 1500 1503 1505 1508 1510 1511 1513 1514 1515 1515 1515 1515 1514 1514 1513 1512 1511 1510 1508 1507 1505 1503 1501 1498 1496 1494 1491 1488 1485 1481 1478 1474 1470 1466 1463
1483 1484 1486 1488 1490 1493 1496 1498 1500 1504 1506 1508 1510 1512 1513 1514 1514 1515 1515 1514 1514 1514 1513 1511 1510 1509 1508 1506 1504 1502 1500 1497 1494 1492 1490 1487 1483 1480 1476 1473 1469 1465 1461 1457
1487 1489 1491 1493 1496 1498 1500 1502 1504 1507 1509 1510 1512 1513 1514 1514 1514 1514 1514 1513 1513 1512 1511 1509 1508 1506 1505 1503 1501 1499 1497 1494 1490 1488 1485 1482 1479 1475 1472 1468 1464 1460 1457 1453
1493 1494 1496 1498 1500 1502 1504 1506 1507 1509 1510 1511 1512 1513 1513 1513 1513 1513 1512 1511 1510 1509 1508 1506 1505 1503 1501 1499 1496 1495 1493 1490 1487 1484 1481 1478 1474 1471 1467 1463 1459 1455 1451 1448
1497 1499 1500 1502 1503 1505 1507 1508 1509 1510 1511 1512 1512 1512 1512 1512 1512 1511 1510 1509 1508 1507 1505 1503 1501 1500 1498 1495 1493 1491 1489 1486 1483 1480 1477 1473 1470 1467 1463 1459 1455 1451 1447 1443
1501 1503 1504 1505 1506 1507 1508 1509 1510 1511 1511 1511 1511 1511 1511 1510 1509 1509 1508 1507 1505 1504 1502 1500 1499 1497 1494 1491 1489 1488 1485 1482 1479 1476 1473 1470 1466 1463 1459 1455 1451 1447 1443 1439
1504 1505 1506 1507 1508 1509 1509 1509 1510 1510 1510 1510 1509 1509 1508 1508 1507 1506 1505 1504 1502 1500 1499 1497 1496 1493 1491 1488 1486 1484 1482 1478 1476 1472 1469 1466 1463 1460 1456 1452 1448 1444 1440 1435
1506 1507 1508 1509 1509 1509 1509 1509 1509 1509 1508 1508 1507 1506 1506 1505 1504 1503 1502 1501 1499 1497 1496 1495 1492 1489 1487 1485 1484 1482 1479 1476 1473 1470 1467 1464 1461 1457 1453 1449 1445 1441 1437 1432
1508 1508 1509 1509 1508 1508 1508 1508 1507 1507 1506 1505 1505 1504 1503 1502 1502 1501 1500 1498 1497 1494 1494 1491 1489 1486 1484 1484 1482 1479 1477 1474 1471 1468 1465 1462 1459 1455 1451 1447 1443 1439 1434 1429
1508 1508 1508 1507 1507 1507 1506 1506 1505 1504 1503 1503 1502 1501 1500 1500 1499 1498 1496 1495 1494 1492 1491 1488 1487 1485 1484 1483 1481 1478 1476 1473 1470 1467 1464 1461 1458 1454 1450 1446 1441 1437 1433 1428
1507 1507 1507 1506 1506 1505 1504 1503 1502 1502 1501 1500 1499 1498 1498 1497 1497 1496 1494 1493 1491 1491 1490 1488 1486 1484 1484 1482 1480 1477 1475 1472 1469 1467 1464 1460 1457 1453 1449 1445 1441 1436 1431 1427
1506 1505 1505 1504 1503 1503 1502 1501 1500 1499 1499 1498 1497 1497 1496 1495 1494 1493 1493 1492 1491 1490 1490 1488 1487 1486 1484 1482 1480 1478 1476 1473 1470 1467 1464 1461 1457 1453 1449 1445 1441 1436 1432 1427
1504 1503 1502 1502 1501 1500 1499 1499 1498 1497 1496 1496 1495 1495 1494 1493 1493 1493 1492 1492 1491 1490 1490 1489 1488 1487 1485 1483 1481 1479 1477 1474 1471 1468 1465 1462 1458 1454 1450 1446 1442 1437 1433 1428